Location: Mentone
(34.5413°N, 85.5351°W)
Time: 04:35:00
(UTC-05:00)

Okean O Rocket - Visible Passes

Search period start: 26 April 2018 00:00
Search period end: 06 May 2018 00:00
Orbit: 623 x 645 km, 98.1° (Epoch: 25 April)

Date Brightness Start Highest point End Pass type
(mag) Time Alt. Az. Time Alt. Az. Time Alt. Az.
26 Apr 2.5 04:44:01 10° NNE 04:48:14 49° E 04:52:25 10° S visible
27 Apr 1.6 05:05:29 10° NNE 05:09:50 90° NW 05:14:11 10° SSW visible
28 Apr 4.5 03:53:22 10° ENE 03:54:48 11° E 03:56:13 10° ESE visible
28 Apr 1.9 05:27:11 10° N 05:31:23 49° WNW 05:35:33 10° SSW visible
29 Apr 4.0 04:13:18 10° NE 04:16:34 21° E 04:19:48 10° SE visible
30 Apr 3.1 04:34:14 10° NNE 04:38:16 36° E 04:42:15 10° SSE visible
01 May 1.9 04:55:34 10° NNE 04:59:53 68° E 05:04:12 10° S visible
02 May 1.6 05:17:10 10° N 05:21:28 66° WNW 05:25:46 10° SSW visible
03 May 4.3 04:03:54 10° ENE 04:06:32 16° E 04:09:09 10° SE visible
04 May 3.6 04:24:32 10° NE 04:28:16 27° E 04:31:59 10° SSE visible
05 May 2.5 04:45:42 10° NNE 04:49:55 50° E 04:54:08 10° S visible
